CSCL Spring — VRMT6 — position and weather

sailwx.info

Track history (hours):
 
Tides and Currents Weather Stations Pressure Air Temp Water Temp Dewpoint Dewpoint Depression Visibility Wind Speed Wind Dir Waves Ship Positions

CSCL Spring

Last reported at 2018-Feb-16 19:22 UTC. Time now 2018-Feb-19 22:14 UTC.
Position N 38°29' W 126°49'.

Length 335 m; draft 12.1 m.

Type: Ship (hazmat cat B). MMSI: 477257100.

Date/timePositionNaut miles runAvg speedWind from/ knotsBaromVisibWave heightAir tempDewpointWater temp
2018-Feb-16 19:22N 38°29' W 126°49'2013.8
2018-Feb-16 17:53N 38°26' W 126°23'513.7
2018-Feb-16 17:30N 38°26' W 126°16'713.8
2018-Feb-16 16:59N 38°25' W 126°07'613.5
2018-Feb-16 16:30N 38°24' W 125°59'713.6
2018-Feb-16 16:00N 38°24' W 125°50'4513.4
2018-Feb-16 12:41N 38°18' W 124°54'613.0
2018-Feb-16 12:11N 38°18' W 124°46'413.0
2018-Feb-16 11:51N 38°17' W 124°40'513.2
2018-Feb-16 11:30N 38°17' W 124°34'713.3
2018-Feb-16 11:00N 38°16' W 124°26'713.5
2018-Feb-16 10:30N 38°15' W 124°17'713.7
2018-Feb-16 10:00N 38°15' W 124°09'713.9
2018-Feb-16 09:30N 38°14' W 123°60'713.7
2018-Feb-16 09:00N 38°13' W 123°51'713.3
2018-Feb-16 08:30N 38°12' W 123°43'613.0
2018-Feb-16 08:00N 38°11' W 123°35'713.2
2018-Feb-16 07:30N 38°10' W 123°26'511.1
2018-Feb-16 07:00N 38°09' W 123°20'510.0
2018-Feb-16 06:30N 38°05' W 123°15'5 9.9
2018-Feb-16 06:00N 38°01' W 123°12'5 9.0
2018-Feb-16 05:30N 37°58' W 123°07'5 9.4
2018-Feb-16 05:00N 37°56' W 123°02'5 9.8
2018-Feb-16 04:30N 37°53' W 122°57'5 9.7
2018-Feb-16 04:00N 37°51' W 122°51'5 9.6
2018-Feb-16 03:30N 37°48' W 122°46'5 9.7
2018-Feb-16 03:00N 37°46' W 122°41'714.2
2018-Feb-16 02:30N 37°48' W 122°32'713.9
2018-Feb-16 02:00N 37°50' W 122°24'4 8.6
2018-Feb-16 01:31N 37°48' W 122°19'0 0.7
2018-Feb-16 00:58N 37°48' W 122°19'0 0.0
2018-Feb-16 00:28N 37°48' W 122°19'0 0.0
2018-Feb-15 23:58N 37°48' W 122°19'0 0.0
2018-Feb-15 23:28N 37°48' W 122°19'0 0.0
2018-Feb-15 22:58N 37°48' W 122°19'0 0.0
2018-Feb-15 22:28N 37°48' W 122°19'0 0.0
2018-Feb-15 21:58N 37°48' W 122°19'0 0.0
2018-Feb-15 21:28N 37°48' W 122°19'0 0.0
2018-Feb-15 20:58N 37°48' W 122°19'0 0.0
2018-Feb-15 20:28N 37°48' W 122°19'0 0.0
2018-Feb-15 19:58N 37°48' W 122°19'0 0.0
2018-Feb-15 19:28N 37°48' W 122°19'0 0.0
2018-Feb-15 18:58N 37°48' W 122°19'0 0.0
2018-Feb-15 18:28N 37°48' W 122°19'0 0.0
2018-Feb-15 17:58N 37°48' W 122°19'0 0.0
2018-Feb-15 17:28N 37°48' W 122°19'0 0.0
2018-Feb-15 16:58N 37°48' W 122°19'0 0.0
2018-Feb-15 16:28N 37°48' W 122°19'0 0.0
2018-Feb-15 15:58N 37°48' W 122°19'0 0.0
2018-Feb-15 15:28N 37°48' W 122°19'0 0.0
2018-Feb-15 14:58N 37°48' W 122°19'0 0.0
2018-Feb-15 14:28N 37°48' W 122°19'0 0.0
2018-Feb-15 13:58N 37°48' W 122°19'0 0.0
2018-Feb-15 13:28N 37°48' W 122°19'0 0.0
2018-Feb-15 12:58N 37°48' W 122°19'0 0.0
2018-Feb-15 12:28N 37°48' W 122°19'0 0.0
2018-Feb-15 11:58N 37°48' W 122°19'0 0.0
2018-Feb-15 11:28N 37°48' W 122°19'0 0.0
2018-Feb-15 10:58N 37°48' W 122°19'0 0.0
2018-Feb-15 10:28N 37°48' W 122°19'0 0.0
2018-Feb-15 09:58N 37°48' W 122°19'0 0.0
2018-Feb-15 09:28N 37°48' W 122°19'0 0.0
2018-Feb-15 08:58N 37°48' W 122°19'0 0.0
2018-Feb-15 08:28N 37°48' W 122°19'0 0.0
2018-Feb-15 07:58N 37°48' W 122°19'0 0.0
2018-Feb-15 07:28N 37°48' W 122°19'0 0.0
2018-Feb-15 06:58N 37°48' W 122°19'0 0.0
2018-Feb-15 06:25N 37°48' W 122°19'0 0.0
2018-Feb-15 05:58N 37°48' W 122°19'0 0.0
2018-Feb-15 05:28N 37°48' W 122°19'0 0.0
2018-Feb-15 04:58N 37°48' W 122°19'0 0.0
2018-Feb-15 04:28N 37°48' W 122°19'0 0.0
2018-Feb-15 03:58N 37°48' W 122°19'0 0.0
2018-Feb-15 03:28N 37°48' W 122°19'0 0.0
2018-Feb-15 02:58N 37°48' W 122°19'0 0.0
2018-Feb-15 02:28N 37°48' W 122°19'0 0.0
2018-Feb-15 01:58N 37°48' W 122°19'0 0.0
2018-Feb-15 01:28N 37°48' W 122°19'0 0.0
2018-Feb-15 00:58N 37°48' W 122°19'0 0.0
2018-Feb-15 00:28N 37°48' W 122°19'0 0.0
2018-Feb-15 00:01N 37°48' W 122°19'1 1.0
2018-Feb-14 23:30N 37°48' W 122°18'0 0.1
2018-Feb-14 23:00N 37°48' W 122°18'2 4.1
2018-Feb-14 22:30N 37°48' W 122°21'4 8.4
2018-Feb-14 22:00N 37°49' W 122°26'4 8.3
2018-Feb-14 21:30N 37°48' W 122°31'713.5
2018-Feb-14 21:01N 37°46' W 122°39'4 7.6
2018-Feb-14 20:31N 37°42' W 122°41'4 7.9
2018-Feb-14 20:01N 37°38' W 122°40'510.0
2018-Feb-14 19:31N 37°33' W 122°40'5 9.9
2018-Feb-14 19:00N 37°28' W 122°40'510.1
2018-Feb-14 18:30N 37°23' W 122°40'5 9.9
2018-Feb-14 18:00N 37°18' W 122°39'5 9.6
2018-Feb-14 17:31N 37°14' W 122°38'3 6.7
2018-Feb-14 17:01N 37°11' W 122°37'0 0.8
2018-Feb-14 16:31N 37°11' W 122°37'0 0.7
2018-Feb-14 16:00N 37°11' W 122°37'0 0.7
2018-Feb-14 15:30N 37°12' W 122°37'0 0.3
2018-Feb-14 15:01N 37°12' W 122°37'0 0.4
2018-Feb-14 14:31N 37°12' W 122°37'1 1.8
2018-Feb-14 14:01N 37°11' W 122°37'5 9.5
2018-Feb-14 13:31N 37°06' W 122°35'713.3
2018-Feb-14 13:00N 36°60' W 122°33'713.5
2018-Feb-14 12:30N 36°53' W 122°31'713.6
2018-Feb-14 12:00N 36°47' W 122°29'713.5
2018-Feb-14 11:30N 36°40' W 122°26'813.6
2018-Feb-14 10:57N 36°34' W 122°22'5913.4
2018-Feb-14 06:34N 35°42' W 121°46'113.3
2018-Feb-14 06:29N 35°41' W 121°45'613.3
2018-Feb-14 06:00N 35°36' W 121°41'1613.5
2018-Feb-14 04:50N 35°22' W 121°31'413.9
2018-Feb-14 04:30N 35°18' W 121°29'713.6
2018-Feb-14 04:00N 35°12' W 121°24'713.2
2018-Feb-14 03:30N 35°07' W 121°21'713.1
2018-Feb-14 03:00N 35°01' W 121°16'713.8
2018-Feb-14 02:30N 34°55' W 121°12'713.7
2018-Feb-14 02:01N 34°49' W 121°08'713.8
2018-Feb-14 01:30N 34°43' W 121°04'713.8
2018-Feb-14 01:00N 34°37' W 120°60'713.7
2018-Feb-14 00:30N 34°31' W 120°56'612.5
2018-Feb-14 00:00N 34°26' W 120°51'5 9.8
2018-Feb-13 23:29N 34°25' W 120°45'5 9.4
2018-Feb-13 22:57N 34°23' W 120°39'4 9.4
2018-Feb-13 22:29N 34°22' W 120°34'5 9.8
2018-Feb-13 21:56N 34°21' W 120°28'510.8
2018-Feb-13 21:30N 34°20' W 120°22'610.9
2018-Feb-13 20:59N 34°18' W 120°16'3911.1
2018-Feb-13 17:27N 34°08' W 119°30'711.4
2018-Feb-13 16:52N 34°06' W 119°22'411.5
2018-Feb-13 16:29N 34°05' W 119°17'611.7
2018-Feb-13 16:00N 34°02' W 119°11'611.6
2018-Feb-13 15:30N 33°59' W 119°05'611.7
2018-Feb-13 15:00N 33°56' W 118°59'611.4
2018-Feb-13 14:30N 33°54' W 118°53'611.7
2018-Feb-13 14:01N 33°51' W 118°47'611.4
2018-Feb-13 13:30N 33°48' W 118°41'611.3
2018-Feb-13 13:01N 33°45' W 118°35'611.4
2018-Feb-13 12:31N 33°42' W 118°29'611.2
2018-Feb-13 12:00N 33°39' W 118°23'510.8
2018-Feb-13 11:30N 33°39' W 118°17'5 9.9
2018-Feb-13 11:00N 33°41' W 118°12'3 6.0
2018-Feb-13 10:30N 33°44' W 118°11'0 0.7
2018-Feb-13 09:59N 33°44' W 118°11'0 0.0
2018-Feb-13 09:26N 33°44' W 118°11'0 0.1
2018-Feb-13 08:59N 33°44' W 118°11'0 0.0
2018-Feb-13 08:29N 33°44' W 118°11'0 0.1
2018-Feb-13 07:59N 33°44' W 118°11'0 0.0
2018-Feb-13 07:26N 33°44' W 118°11'0 0.0
2018-Feb-13 06:56N 33°44' W 118°11'0 0.0
2018-Feb-13 06:29N 33°44' W 118°11'0 0.0
2018-Feb-13 05:59N 33°44' W 118°11'0 0.0
2018-Feb-13 05:29N 33°44' W 118°11'0 0.0
2018-Feb-13 04:59N 33°44' W 118°11'0 0.0
2018-Feb-13 04:29N 33°44' W 118°11'0 0.0
2018-Feb-13 03:56N 33°44' W 118°11'0 0.0
2018-Feb-13 03:26N 33°44' W 118°11'0 0.0
2018-Feb-13 02:59N 33°44' W 118°11'0 0.0
2018-Feb-13 02:29N 33°44' W 118°11'0 0.0
2018-Feb-13 01:59N 33°44' W 118°11'0 0.0
2018-Feb-13 01:29N 33°44' W 118°11'0 0.0
2018-Feb-13 00:59N 33°44' W 118°11'0 0.0
2018-Feb-13 00:29N 33°44' W 118°11'0 0.0
2018-Feb-12 23:59N 33°44' W 118°11'0 0.0
2018-Feb-12 23:29N 33°44' W 118°11'0 0.0
2018-Feb-12 22:59N 33°44' W 118°11'0 0.0
2018-Feb-12 22:29N 33°44' W 118°11'0 0.0
2018-Feb-12 21:59N 33°44' W 118°11'0 0.0
2018-Feb-12 21:29N 33°44' W 118°11'0 0.0
2018-Feb-12 20:59N 33°44' W 118°11'0 0.1
2018-Feb-12 20:29N 33°44' W 118°11'0 0.1
2018-Feb-12 19:59N 33°44' W 118°11'0 0.0
2018-Feb-12 19:29N 33°44' W 118°11'0 0.0
2018-Feb-12 18:59N 33°44' W 118°11'0 0.0
2018-Feb-12 18:29N 33°44' W 118°11'0 0.0
2018-Feb-12 17:59N 33°44' W 118°11'0 0.0
2018-Feb-12 17:29N 33°44' W 118°11'0 0.0
2018-Feb-12 16:59N 33°44' W 118°11'0 0.0
2018-Feb-12 16:29N 33°44' W 118°11'0 0.0
2018-Feb-12 15:59N 33°44' W 118°11'0 0.0
2018-Feb-12 15:17N 33°44' W 118°11'0 0.2
2018-Feb-12 14:59N 33°44' W 118°11'0 0.1
2018-Feb-12 14:29N 33°44' W 118°11'0 0.0
2018-Feb-12 13:59N 33°44' W 118°11'0 0.0
2018-Feb-12 13:29N 33°44' W 118°11'0 0.0
2018-Feb-12 12:59N 33°44' W 118°11'0 0.0
2018-Feb-12 12:26N 33°44' W 118°11'0 0.0
2018-Feb-12 11:59N 33°44' W 118°11'0 0.0
2018-Feb-12 11:29N 33°44' W 118°11'0 0.0
2018-Feb-12 10:59N 33°44' W 118°11'0 0.0
2018-Feb-12 10:26N 33°44' W 118°11'0 0.0
2018-Feb-12 09:59N 33°44' W 118°11'0 0.0
2018-Feb-12 09:29N 33°44' W 118°11'0 0.0
2018-Feb-12 08:59N 33°44' W 118°11'0 0.0
2018-Feb-12 08:26N 33°44' W 118°11'0 0.0
2018-Feb-12 07:59N 33°44' W 118°11'0 0.0
2018-Feb-12 07:29N 33°44' W 118°11'0 0.1
2018-Feb-12 06:59N 33°44' W 118°11'0 0.1
2018-Feb-12 06:29N 33°44' W 118°11'0 0.1
2018-Feb-12 05:59N 33°44' W 118°11'0 0.1
2018-Feb-12 05:29N 33°44' W 118°11'0 0.0
2018-Feb-12 04:59N 33°44' W 118°11'0 0.0
2018-Feb-12 04:29N 33°44' W 118°11'0 0.0
2018-Feb-12 03:59N 33°44' W 118°11'0 0.0
2018-Feb-12 03:29N 33°44' W 118°11'0 0.0
2018-Feb-12 02:59N 33°44' W 118°11'0 0.1
2018-Feb-12 02:29N 33°44' W 118°11'0 0.1
2018-Feb-12 01:59N 33°44' W 118°11'0 0.0
2018-Feb-12 01:29N 33°44' W 118°11'0 0.0
2018-Feb-12 00:59N 33°44' W 118°11'0 0.0
2018-Feb-12 00:29N 33°44' W 118°11'0 0.0
2018-Feb-11 23:59N 33°44' W 118°11'0 0.0
2018-Feb-11 23:29N 33°44' W 118°11'0 0.0
2018-Feb-11 22:59N 33°44' W 118°11'0 0.0
2018-Feb-11 22:29N 33°44' W 118°11'0 0.0
2018-Feb-11 21:59N 33°44' W 118°11'0 0.1
2018-Feb-11 21:29N 33°44' W 118°11'0 0.1
2018-Feb-11 20:59N 33°44' W 118°11'0 0.0
2018-Feb-11 20:29N 33°44' W 118°11'0 0.0
2018-Feb-11 19:59N 33°44' W 118°11'0 0.0
2018-Feb-11 19:26N 33°44' W 118°11'0 0.0
2018-Feb-11 18:56N 33°44' W 118°11'0 0.0
2018-Feb-11 18:26N 33°44' W 118°11'0 0.0
2018-Feb-11 17:59N 33°44' W 118°11'0 0.0
2018-Feb-11 17:26N 33°44' W 118°11'0 0.0
2018-Feb-11 16:59N 33°44' W 118°11'0 0.0
2018-Feb-11 16:29N 33°44' W 118°11'0 0.0
2018-Feb-11 15:59N 33°44' W 118°11'0 0.0
2018-Feb-11 15:29N 33°44' W 118°11'0 0.0
2018-Feb-11 14:59N 33°44' W 118°11'0 0.1
2018-Feb-11 14:29N 33°44' W 118°11'0 0.1
2018-Feb-11 13:59N 33°44' W 118°11'0 0.0
2018-Feb-11 13:29N 33°44' W 118°11'0 0.1
2018-Feb-11 12:59N 33°44' W 118°11'0 0.1
2018-Feb-11 12:29N 33°44' W 118°11'0 0.0
2018-Feb-11 11:59N 33°44' W 118°11'0 0.1
2018-Feb-11 11:29N 33°44' W 118°11'0 0.1
2018-Feb-11 10:50N 33°44' W 118°11'0 0.0
2018-Feb-11 10:29N 33°44' W 118°11'0 0.0
2018-Feb-11 09:53N 33°44' W 118°11'0 0.0
2018-Feb-11 09:29N 33°44' W 118°11'0 0.1
2018-Feb-11 08:59N 33°44' W 118°11'0 0.0
2018-Feb-11 08:29N 33°44' W 118°11'0 0.1
2018-Feb-11 07:59N 33°44' W 118°11'0 0.0
2018-Feb-11 07:29N 33°44' W 118°11'0 0.0
2018-Feb-11 06:59N 33°44' W 118°11'0 0.0
2018-Feb-11 06:29N 33°44' W 118°11'0 0.0
2018-Feb-11 05:59N 33°44' W 118°11'0 0.0
2018-Feb-11 05:29N 33°44' W 118°11'0 0.0
2018-Feb-11 04:55N 33°44' W 118°11'0 0.0
2018-Feb-11 04:28N 33°44' W 118°11'0 0.0
2018-Feb-11 03:58N 33°44' W 118°11'0 0.1
2018-Feb-11 03:19N 33°44' W 118°11'0 0.1
2018-Feb-11 02:58N 33°44' W 118°11'0 0.0
2018-Feb-11 02:28N 33°44' W 118°11'0 0.0
2018-Feb-11 01:58N 33°44' W 118°11'0 0.0
2018-Feb-11 01:28N 33°44' W 118°11'0 0.0
2018-Feb-11 00:58N 33°44' W 118°11'0 0.0
2018-Feb-11 00:28N 33°44' W 118°11'0 0.0
2018-Feb-10 23:58N 33°44' W 118°11'0 0.0
2018-Feb-10 23:28N 33°44' W 118°11'0 0.0
2018-Feb-10 22:58N 33°44' W 118°11'0 0.0
2018-Feb-10 22:28N 33°44' W 118°11'0 0.0
2018-Feb-10 21:58N 33°44' W 118°11'0 0.0
2018-Feb-10 21:28N 33°44' W 118°11'0 0.0
2018-Feb-10 20:58N 33°44' W 118°11'0 0.0
2018-Feb-10 20:28N 33°44' W 118°11'0 0.0
2018-Feb-10 19:58N 33°44' W 118°11'0 0.0
2018-Feb-10 19:28N 33°44' W 118°11'0 0.0
2018-Feb-10 18:58N 33°44' W 118°11'0 0.0
2018-Feb-10 18:25N 33°44' W 118°11'0 0.0
2018-Feb-10 17:58N 33°44' W 118°11'0 0.0
2018-Feb-10 17:28N 33°44' W 118°11'0 0.0
2018-Feb-10 16:58N 33°44' W 118°11'0 0.0
2018-Feb-10 16:28N 33°44' W 118°11'0 0.0
2018-Feb-10 15:58N 33°44' W 118°11'0 0.0
2018-Feb-10 15:28N 33°44' W 118°11'0 0.0
2018-Feb-10 14:58N 33°44' W 118°11'0 0.0
2018-Feb-10 14:28N 33°44' W 118°11'0 0.0
2018-Feb-10 13:55N 33°44' W 118°11'0 0.0
2018-Feb-10 13:28N 33°44' W 118°11'0 0.0
2018-Feb-10 12:58N 33°44' W 118°11'0 0.0
2018-Feb-10 12:28N 33°44' W 118°11'0 0.1
2018-Feb-10 12:00N 33°44' W 118°11'0 0.8
2018-Feb-10 11:30N 33°44' W 118°11'3 6.4
2018-Feb-10 11:01N 33°41' W 118°11'4 8.1
2018-Feb-10 10:30N 33°37' W 118°12'5 9.8
2018-Feb-10 10:00N 33°36' W 118°18'5 9.8
2018-Feb-10 09:30N 33°38' W 118°24'510.5
2018-Feb-10 09:00N 33°40' W 118°29'510.8
2018-Feb-10 08:30N 33°43' W 118°35'511.0
2018-Feb-10 08:01N 33°46' W 118°40'611.1
2018-Feb-10 07:30N 33°48' W 118°46'611.3
2018-Feb-10 07:00N 33°51' W 118°52'611.4
2018-Feb-10 06:30N 33°54' W 118°58'611.5
2018-Feb-10 05:59N 33°57' W 119°04'714.0
2018-Feb-10 05:31N 34°00' W 119°11'713.7
2018-Feb-10 05:00N 34°03' W 119°19'714.0
2018-Feb-10 04:30N 34°05' W 119°27'714.0
2018-Feb-10 04:00N 34°07' W 119°35'713.9
2018-Feb-10 03:30N 34°09' W 119°43'714.0
2018-Feb-10 03:00N 34°10' W 119°52'814.4
2018-Feb-10 02:29N 34°12' W 120°00'714.2
2018-Feb-10 02:00N 34°14' W 120°08'714.1
2018-Feb-10 01:30N 34°16' W 120°16'714.1
2018-Feb-10 01:00N 34°18' W 120°25'612.1
2018-Feb-10 00:30N 34°19' W 120°32'5 9.5
2018-Feb-10 00:00N 34°21' W 120°37'5 9.3
2018-Feb-09 23:30N 34°22' W 120°42'5 9.3
2018-Feb-09 22:59N 34°24' W 120°48'2 9.0
2018-Feb-09 22:45N 34°25' W 120°50'3914.0
2018-Feb-09 20:00N 34°55' W 121°19'1515.2
2018-Feb-09 19:00N 35°07' W 121°30'1515.0
2018-Feb-09 18:00N 35°20' W 121°41'1514.8
2018-Feb-09 17:00N 35°31' W 121°52'3714.8
2018-Feb-09 14:30N 36°01' W 122°20'714.7
2018-Feb-09 14:00N 36°06' W 122°25'714.8
2018-Feb-09 13:30N 36°12' W 122°31'715.0
2018-Feb-09 13:00N 36°18' W 122°36'1514.8
2018-Feb-09 12:00N 36°31' W 122°46'714.9
2018-Feb-09 11:30N 36°38' W 122°50'2214.9
2018-Feb-09 10:00N 36°57' W 123°04'714.5
2018-Feb-09 09:30N 37°03' W 123°09'714.7
2018-Feb-09 09:00N 37°10' W 123°13'1514.5
2018-Feb-09 08:00N 37°22' W 123°23'2214.6
2018-Feb-09 06:30N 37°41' W 123°37'714.6
2018-Feb-09 06:00N 37°48' W 123°41'714.9
2018-Feb-09 05:30N 37°54' W 123°45'714.6
2018-Feb-09 05:00N 38°01' W 123°49'714.7
2018-Feb-09 04:30N 38°08' W 123°53'714.7
2018-Feb-09 04:00N 38°14' W 123°57'714.5
2018-Feb-09 03:30N 38°21' W 124°00'714.6
2018-Feb-09 03:00N 38°28' W 124°04'714.3
2018-Feb-09 02:30N 38°34' W 124°07'714.2
2018-Feb-09 02:00N 38°41' W 124°11'714.5
2018-Feb-09 01:30N 38°47' W 124°14'714.5
2018-Feb-09 01:00N 38°54' W 124°18'714.8
2018-Feb-09 00:30N 39°01' W 124°21'  
Track history (hours):
 
Tides and Currents Weather Stations Pressure Air Temp Water Temp Dewpoint Dewpoint Depression Visibility Wind Speed Wind Dir Waves Ship Positions

CSCL Spring

Last reported at 2018-Feb-16 19:22 UTC. Time now 2018-Feb-19 22:14 UTC.
Position N 38°29' W 126°49'.

Length 335 m; draft 12.1 m.

Type: Ship (hazmat cat B). MMSI: 477257100.

Date/timePositionNaut miles runAvg speedWind from/ knotsBaromVisibWave heightAir tempDewpointWater temp
2018-Feb-16 19:22N 38°29' W 126°49'2013.8
2018-Feb-16 17:53N 38°26' W 126°23'513.7
2018-Feb-16 17:30N 38°26' W 126°16'713.8
2018-Feb-16 16:59N 38°25' W 126°07'613.5
2018-Feb-16 16:30N 38°24' W 125°59'713.6
2018-Feb-16 16:00N 38°24' W 125°50'4513.4
2018-Feb-16 12:41N 38°18' W 124°54'613.0
2018-Feb-16 12:11N 38°18' W 124°46'413.0
2018-Feb-16 11:51N 38°17' W 124°40'513.2
2018-Feb-16 11:30N 38°17' W 124°34'713.3
2018-Feb-16 11:00N 38°16' W 124°26'713.5
2018-Feb-16 10:30N 38°15' W 124°17'713.7
2018-Feb-16 10:00N 38°15' W 124°09'713.9
2018-Feb-16 09:30N 38°14' W 123°60'713.7
2018-Feb-16 09:00N 38°13' W 123°51'713.3
2018-Feb-16 08:30N 38°12' W 123°43'613.0
2018-Feb-16 08:00N 38°11' W 123°35'713.2
2018-Feb-16 07:30N 38°10' W 123°26'511.1
2018-Feb-16 07:00N 38°09' W 123°20'510.0
2018-Feb-16 06:30N 38°05' W 123°15'5 9.9
2018-Feb-16 06:00N 38°01' W 123°12'5 9.0
2018-Feb-16 05:30N 37°58' W 123°07'5 9.4
2018-Feb-16 05:00N 37°56' W 123°02'5 9.8
2018-Feb-16 04:30N 37°53' W 122°57'5 9.7
2018-Feb-16 04:00N 37°51' W 122°51'5 9.6
2018-Feb-16 03:30N 37°48' W 122°46'5 9.7
2018-Feb-16 03:00N 37°46' W 122°41'714.2
2018-Feb-16 02:30N 37°48' W 122°32'713.9
2018-Feb-16 02:00N 37°50' W 122°24'4 8.6
2018-Feb-16 01:31N 37°48' W 122°19'0 0.7
2018-Feb-16 00:58N 37°48' W 122°19'0 0.0
2018-Feb-16 00:28N 37°48' W 122°19'0 0.0
2018-Feb-15 23:58N 37°48' W 122°19'0 0.0
2018-Feb-15 23:28N 37°48' W 122°19'0 0.0
2018-Feb-15 22:58N 37°48' W 122°19'0 0.0
2018-Feb-15 22:28N 37°48' W 122°19'0 0.0
2018-Feb-15 21:58N 37°48' W 122°19'0 0.0
2018-Feb-15 21:28N 37°48' W 122°19'0 0.0
2018-Feb-15 20:58N 37°48' W 122°19'0 0.0
2018-Feb-15 20:28N 37°48' W 122°19'0 0.0
2018-Feb-15 19:58N 37°48' W 122°19'0 0.0
2018-Feb-15 19:28N 37°48' W 122°19'0 0.0
2018-Feb-15 18:58N 37°48' W 122°19'0 0.0
2018-Feb-15 18:28N 37°48' W 122°19'0 0.0
2018-Feb-15 17:58N 37°48' W 122°19'0 0.0
2018-Feb-15 17:28N 37°48' W 122°19'0 0.0
2018-Feb-15 16:58N 37°48' W 122°19'0 0.0
2018-Feb-15 16:28N 37°48' W 122°19'0 0.0
2018-Feb-15 15:58N 37°48' W 122°19'0 0.0
2018-Feb-15 15:28N 37°48' W 122°19'0 0.0
2018-Feb-15 14:58N 37°48' W 122°19'0 0.0
2018-Feb-15 14:28N 37°48' W 122°19'0 0.0
2018-Feb-15 13:58N 37°48' W 122°19'0 0.0
2018-Feb-15 13:28N 37°48' W 122°19'0 0.0
2018-Feb-15 12:58N 37°48' W 122°19'0 0.0
2018-Feb-15 12:28N 37°48' W 122°19'0 0.0
2018-Feb-15 11:58N 37°48' W 122°19'0 0.0
2018-Feb-15 11:28N 37°48' W 122°19'0 0.0
2018-Feb-15 10:58N 37°48' W 122°19'0 0.0
2018-Feb-15 10:28N 37°48' W 122°19'0 0.0
2018-Feb-15 09:58N 37°48' W 122°19'0 0.0
2018-Feb-15 09:28N 37°48' W 122°19'0 0.0
2018-Feb-15 08:58N 37°48' W 122°19'0 0.0
2018-Feb-15 08:28N 37°48' W 122°19'0 0.0
2018-Feb-15 07:58N 37°48' W 122°19'0 0.0
2018-Feb-15 07:28N 37°48' W 122°19'0 0.0
2018-Feb-15 06:58N 37°48' W 122°19'0 0.0
2018-Feb-15 06:25N 37°48' W 122°19'0 0.0
2018-Feb-15 05:58N 37°48' W 122°19'0 0.0
2018-Feb-15 05:28N 37°48' W 122°19'0 0.0
2018-Feb-15 04:58N 37°48' W 122°19'0 0.0
2018-Feb-15 04:28N 37°48' W 122°19'0 0.0
2018-Feb-15 03:58N 37°48' W 122°19'0 0.0
2018-Feb-15 03:28N 37°48' W 122°19'0 0.0
2018-Feb-15 02:58N 37°48' W 122°19'0 0.0
2018-Feb-15 02:28N 37°48' W 122°19'0 0.0
2018-Feb-15 01:58N 37°48' W 122°19'0 0.0
2018-Feb-15 01:28N 37°48' W 122°19'0 0.0
2018-Feb-15 00:58N 37°48' W 122°19'0 0.0
2018-Feb-15 00:28N 37°48' W 122°19'0 0.0
2018-Feb-15 00:01N 37°48' W 122°19'1 1.0
2018-Feb-14 23:30N 37°48' W 122°18'0 0.1
2018-Feb-14 23:00N 37°48' W 122°18'2 4.1
2018-Feb-14 22:30N 37°48' W 122°21'4 8.4
2018-Feb-14 22:00N 37°49' W 122°26'4 8.3
2018-Feb-14 21:30N 37°48' W 122°31'713.5
2018-Feb-14 21:01N 37°46' W 122°39'4 7.6
2018-Feb-14 20:31N 37°42' W 122°41'4 7.9
2018-Feb-14 20:01N 37°38' W 122°40'510.0
2018-Feb-14 19:31N 37°33' W 122°40'5 9.9
2018-Feb-14 19:00N 37°28' W 122°40'510.1
2018-Feb-14 18:30N 37°23' W 122°40'5 9.9
2018-Feb-14 18:00N 37°18' W 122°39'5 9.6
2018-Feb-14 17:31N 37°14' W 122°38'3 6.7
2018-Feb-14 17:01N 37°11' W 122°37'0 0.8
2018-Feb-14 16:31N 37°11' W 122°37'0 0.7
2018-Feb-14 16:00N 37°11' W 122°37'0 0.7
2018-Feb-14 15:30N 37°12' W 122°37'0 0.3
2018-Feb-14 15:01N 37°12' W 122°37'0 0.4
2018-Feb-14 14:31N 37°12' W 122°37'1 1.8
2018-Feb-14 14:01N 37°11' W 122°37'5 9.5
2018-Feb-14 13:31N 37°06' W 122°35'713.3
2018-Feb-14 13:00N 36°60' W 122°33'713.5
2018-Feb-14 12:30N 36°53' W 122°31'713.6
2018-Feb-14 12:00N 36°47' W 122°29'713.5
2018-Feb-14 11:30N 36°40' W 122°26'813.6
2018-Feb-14 10:57N 36°34' W 122°22'5913.4
2018-Feb-14 06:34N 35°42' W 121°46'113.3
2018-Feb-14 06:29N 35°41' W 121°45'613.3
2018-Feb-14 06:00N 35°36' W 121°41'1613.5
2018-Feb-14 04:50N 35°22' W 121°31'413.9
2018-Feb-14 04:30N 35°18' W 121°29'713.6
2018-Feb-14 04:00N 35°12' W 121°24'713.2
2018-Feb-14 03:30N 35°07' W 121°21'713.1
2018-Feb-14 03:00N 35°01' W 121°16'713.8
2018-Feb-14 02:30N 34°55' W 121°12'713.7
2018-Feb-14 02:01N 34°49' W 121°08'713.8
2018-Feb-14 01:30N 34°43' W 121°04'713.8
2018-Feb-14 01:00N 34°37' W 120°60'713.7
2018-Feb-14 00:30N 34°31' W 120°56'612.5
2018-Feb-14 00:00N 34°26' W 120°51'5 9.8
2018-Feb-13 23:29N 34°25' W 120°45'5 9.4
2018-Feb-13 22:57N 34°23' W 120°39'4 9.4
2018-Feb-13 22:29N 34°22' W 120°34'5 9.8
2018-Feb-13 21:56N 34°21' W 120°28'510.8
2018-Feb-13 21:30N 34°20' W 120°22'610.9
2018-Feb-13 20:59N 34°18' W 120°16'3911.1
2018-Feb-13 17:27N 34°08' W 119°30'711.4
2018-Feb-13 16:52N 34°06' W 119°22'411.5
2018-Feb-13 16:29N 34°05' W 119°17'611.7
2018-Feb-13 16:00N 34°02' W 119°11'611.6
2018-Feb-13 15:30N 33°59' W 119°05'611.7
2018-Feb-13 15:00N 33°56' W 118°59'611.4
2018-Feb-13 14:30N 33°54' W 118°53'611.7
2018-Feb-13 14:01N 33°51' W 118°47'611.4
2018-Feb-13 13:30N 33°48' W 118°41'611.3
2018-Feb-13 13:01N 33°45' W 118°35'611.4
2018-Feb-13 12:31N 33°42' W 118°29'611.2
2018-Feb-13 12:00N 33°39' W 118°23'510.8
2018-Feb-13 11:30N 33°39' W 118°17'5 9.9
2018-Feb-13 11:00N 33°41' W 118°12'3 6.0
2018-Feb-13 10:30N 33°44' W 118°11'0 0.7
2018-Feb-13 09:59N 33°44' W 118°11'0 0.0
2018-Feb-13 09:26N 33°44' W 118°11'0 0.1
2018-Feb-13 08:59N 33°44' W 118°11'0 0.0
2018-Feb-13 08:29N 33°44' W 118°11'0 0.1
2018-Feb-13 07:59N 33°44' W 118°11'0 0.0
2018-Feb-13 07:26N 33°44' W 118°11'0 0.0
2018-Feb-13 06:56N 33°44' W 118°11'0 0.0
2018-Feb-13 06:29N 33°44' W 118°11'0 0.0
2018-Feb-13 05:59N 33°44' W 118°11'0 0.0
2018-Feb-13 05:29N 33°44' W 118°11'0 0.0
2018-Feb-13 04:59N 33°44' W 118°11'0 0.0
2018-Feb-13 04:29N 33°44' W 118°11'0 0.0
2018-Feb-13 03:56N 33°44' W 118°11'0 0.0
2018-Feb-13 03:26N 33°44' W 118°11'0 0.0
2018-Feb-13 02:59N 33°44' W 118°11'0 0.0
2018-Feb-13 02:29N 33°44' W 118°11'0 0.0
2018-Feb-13 01:59N 33°44' W 118°11'0 0.0
2018-Feb-13 01:29N 33°44' W 118°11'0 0.0
2018-Feb-13 00:59N 33°44' W 118°11'0 0.0
2018-Feb-13 00:29N 33°44' W 118°11'0 0.0
2018-Feb-12 23:59N 33°44' W 118°11'0 0.0
2018-Feb-12 23:29N 33°44' W 118°11'0 0.0
2018-Feb-12 22:59N 33°44' W 118°11'0 0.0
2018-Feb-12 22:29N 33°44' W 118°11'0 0.0
2018-Feb-12 21:59N 33°44' W 118°11'0 0.0
2018-Feb-12 21:29N 33°44' W 118°11'0 0.0
2018-Feb-12 20:59N 33°44' W 118°11'0 0.1
2018-Feb-12 20:29N 33°44' W 118°11'0 0.1
2018-Feb-12 19:59N 33°44' W 118°11'0 0.0
2018-Feb-12 19:29N 33°44' W 118°11'0 0.0
2018-Feb-12 18:59N 33°44' W 118°11'0 0.0
2018-Feb-12 18:29N 33°44' W 118°11'0 0.0
2018-Feb-12 17:59N 33°44' W 118°11'0 0.0
2018-Feb-12 17:29N 33°44' W 118°11'0 0.0
2018-Feb-12 16:59N 33°44' W 118°11'0 0.0
2018-Feb-12 16:29N 33°44' W 118°11'0 0.0
2018-Feb-12 15:59N 33°44' W 118°11'0 0.0
2018-Feb-12 15:17N 33°44' W 118°11'0 0.2
2018-Feb-12 14:59N 33°44' W 118°11'0 0.1
2018-Feb-12 14:29N 33°44' W 118°11'0 0.0
2018-Feb-12 13:59N 33°44' W 118°11'0 0.0
2018-Feb-12 13:29N 33°44' W 118°11'0 0.0
2018-Feb-12 12:59N 33°44' W 118°11'0 0.0
2018-Feb-12 12:26N 33°44' W 118°11'0 0.0
2018-Feb-12 11:59N 33°44' W 118°11'0 0.0
2018-Feb-12 11:29N 33°44' W 118°11'0 0.0
2018-Feb-12 10:59N 33°44' W 118°11'0 0.0
2018-Feb-12 10:26N 33°44' W 118°11'0 0.0
2018-Feb-12 09:59N 33°44' W 118°11'0 0.0
2018-Feb-12 09:29N 33°44' W 118°11'0 0.0
2018-Feb-12 08:59N 33°44' W 118°11'0 0.0
2018-Feb-12 08:26N 33°44' W 118°11'0 0.0
2018-Feb-12 07:59N 33°44' W 118°11'0 0.0
2018-Feb-12 07:29N 33°44' W 118°11'0 0.1
2018-Feb-12 06:59N 33°44' W 118°11'0 0.1
2018-Feb-12 06:29N 33°44' W 118°11'0 0.1
2018-Feb-12 05:59N 33°44' W 118°11'0 0.1
2018-Feb-12 05:29N 33°44' W 118°11'0 0.0
2018-Feb-12 04:59N 33°44' W 118°11'0 0.0
2018-Feb-12 04:29N 33°44' W 118°11'0 0.0
2018-Feb-12 03:59N 33°44' W 118°11'0 0.0
2018-Feb-12 03:29N 33°44' W 118°11'0 0.0
2018-Feb-12 02:59N 33°44' W 118°11'0 0.1
2018-Feb-12 02:29N 33°44' W 118°11'0 0.1
2018-Feb-12 01:59N 33°44' W 118°11'0 0.0
2018-Feb-12 01:29N 33°44' W 118°11'0 0.0
2018-Feb-12 00:59N 33°44' W 118°11'0 0.0
2018-Feb-12 00:29N 33°44' W 118°11'0 0.0
2018-Feb-11 23:59N 33°44' W 118°11'0 0.0
2018-Feb-11 23:29N 33°44' W 118°11'0 0.0
2018-Feb-11 22:59N 33°44' W 118°11'0 0.0
2018-Feb-11 22:29N 33°44' W 118°11'0 0.0
2018-Feb-11 21:59N 33°44' W 118°11'0 0.1
2018-Feb-11 21:29N 33°44' W 118°11'0 0.1
2018-Feb-11 20:59N 33°44' W 118°11'0 0.0
2018-Feb-11 20:29N 33°44' W 118°11'0 0.0
2018-Feb-11 19:59N 33°44' W 118°11'0 0.0
2018-Feb-11 19:26N 33°44' W 118°11'0 0.0
2018-Feb-11 18:56N 33°44' W 118°11'0 0.0
2018-Feb-11 18:26N 33°44' W 118°11'0 0.0
2018-Feb-11 17:59N 33°44' W 118°11'0 0.0
2018-Feb-11 17:26N 33°44' W 118°11'0 0.0
2018-Feb-11 16:59N 33°44' W 118°11'0 0.0
2018-Feb-11 16:29N 33°44' W 118°11'0 0.0
2018-Feb-11 15:59N 33°44' W 118°11'0 0.0
2018-Feb-11 15:29N 33°44' W 118°11'0 0.0
2018-Feb-11 14:59N 33°44' W 118°11'0 0.1
2018-Feb-11 14:29N 33°44' W 118°11'0 0.1
2018-Feb-11 13:59N 33°44' W 118°11'0 0.0
2018-Feb-11 13:29N 33°44' W 118°11'0 0.1
2018-Feb-11 12:59N 33°44' W 118°11'0 0.1
2018-Feb-11 12:29N 33°44' W 118°11'0 0.0
2018-Feb-11 11:59N 33°44' W 118°11'0 0.1
2018-Feb-11 11:29N 33°44' W 118°11'0 0.1
2018-Feb-11 10:50N 33°44' W 118°11'0 0.0
2018-Feb-11 10:29N 33°44' W 118°11'0 0.0
2018-Feb-11 09:53N 33°44' W 118°11'0 0.0
2018-Feb-11 09:29N 33°44' W 118°11'0 0.1
2018-Feb-11 08:59N 33°44' W 118°11'0 0.0
2018-Feb-11 08:29N 33°44' W 118°11'0 0.1
2018-Feb-11 07:59N 33°44' W 118°11'0 0.0
2018-Feb-11 07:29N 33°44' W 118°11'0 0.0
2018-Feb-11 06:59N 33°44' W 118°11'0 0.0
2018-Feb-11 06:29N 33°44' W 118°11'0 0.0
2018-Feb-11 05:59N 33°44' W 118°11'0 0.0
2018-Feb-11 05:29N 33°44' W 118°11'0 0.0
2018-Feb-11 04:55N 33°44' W 118°11'0 0.0
2018-Feb-11 04:28N 33°44' W 118°11'0 0.0
2018-Feb-11 03:58N 33°44' W 118°11'0 0.1
2018-Feb-11 03:19N 33°44' W 118°11'0 0.1
2018-Feb-11 02:58N 33°44' W 118°11'0 0.0
2018-Feb-11 02:28N 33°44' W 118°11'0 0.0
2018-Feb-11 01:58N 33°44' W 118°11'0 0.0
2018-Feb-11 01:28N 33°44' W 118°11'0 0.0
2018-Feb-11 00:58N 33°44' W 118°11'0 0.0
2018-Feb-11 00:28N 33°44' W 118°11'0 0.0
2018-Feb-10 23:58N 33°44' W 118°11'0 0.0
2018-Feb-10 23:28N 33°44' W 118°11'0 0.0
2018-Feb-10 22:58N 33°44' W 118°11'0 0.0
2018-Feb-10 22:28N 33°44' W 118°11'0 0.0
2018-Feb-10 21:58N 33°44' W 118°11'0 0.0
2018-Feb-10 21:28N 33°44' W 118°11'0 0.0
2018-Feb-10 20:58N 33°44' W 118°11'0 0.0
2018-Feb-10 20:28N 33°44' W 118°11'0 0.0
2018-Feb-10 19:58N 33°44' W 118°11'0 0.0
2018-Feb-10 19:28N 33°44' W 118°11'0 0.0
2018-Feb-10 18:58N 33°44' W 118°11'0 0.0
2018-Feb-10 18:25N 33°44' W 118°11'0 0.0
2018-Feb-10 17:58N 33°44' W 118°11'0 0.0
2018-Feb-10 17:28N 33°44' W 118°11'0 0.0
2018-Feb-10 16:58N 33°44' W 118°11'0 0.0
2018-Feb-10 16:28N 33°44' W 118°11'0 0.0
2018-Feb-10 15:58N 33°44' W 118°11'0 0.0
2018-Feb-10 15:28N 33°44' W 118°11'0 0.0
2018-Feb-10 14:58N 33°44' W 118°11'0 0.0
2018-Feb-10 14:28N 33°44' W 118°11'0 0.0
2018-Feb-10 13:55N 33°44' W 118°11'0 0.0
2018-Feb-10 13:28N 33°44' W 118°11'0 0.0
2018-Feb-10 12:58N 33°44' W 118°11'0 0.0
2018-Feb-10 12:28N 33°44' W 118°11'0 0.1
2018-Feb-10 12:00N 33°44' W 118°11'0 0.8
2018-Feb-10 11:30N 33°44' W 118°11'3 6.4
2018-Feb-10 11:01N 33°41' W 118°11'4 8.1
2018-Feb-10 10:30N 33°37' W 118°12'5 9.8
2018-Feb-10 10:00N 33°36' W 118°18'5 9.8
2018-Feb-10 09:30N 33°38' W 118°24'510.5
2018-Feb-10 09:00N 33°40' W 118°29'510.8
2018-Feb-10 08:30N 33°43' W 118°35'511.0
2018-Feb-10 08:01N 33°46' W 118°40'611.1
2018-Feb-10 07:30N 33°48' W 118°46'611.3
2018-Feb-10 07:00N 33°51' W 118°52'611.4
2018-Feb-10 06:30N 33°54' W 118°58'611.5
2018-Feb-10 05:59N 33°57' W 119°04'714.0
2018-Feb-10 05:31N 34°00' W 119°11'713.7
2018-Feb-10 05:00N 34°03' W 119°19'714.0
2018-Feb-10 04:30N 34°05' W 119°27'714.0
2018-Feb-10 04:00N 34°07' W 119°35'713.9
2018-Feb-10 03:30N 34°09' W 119°43'714.0
2018-Feb-10 03:00N 34°10' W 119°52'814.4
2018-Feb-10 02:29N 34°12' W 120°00'714.2
2018-Feb-10 02:00N 34°14' W 120°08'714.1
2018-Feb-10 01:30N 34°16' W 120°16'714.1
2018-Feb-10 01:00N 34°18' W 120°25'612.1
2018-Feb-10 00:30N 34°19' W 120°32'5 9.5
2018-Feb-10 00:00N 34°21' W 120°37'5 9.3
2018-Feb-09 23:30N 34°22' W 120°42'5 9.3
2018-Feb-09 22:59N 34°24' W 120°48'2 9.0
2018-Feb-09 22:45N 34°25' W 120°50'3914.0
2018-Feb-09 20:00N 34°55' W 121°19'1515.2
2018-Feb-09 19:00N 35°07' W 121°30'1515.0
2018-Feb-09 18:00N 35°20' W 121°41'1514.8
2018-Feb-09 17:00N 35°31' W 121°52'3714.8
2018-Feb-09 14:30N 36°01' W 122°20'714.7
2018-Feb-09 14:00N 36°06' W 122°25'714.8
2018-Feb-09 13:30N 36°12' W 122°31'715.0
2018-Feb-09 13:00N 36°18' W 122°36'1514.8
2018-Feb-09 12:00N 36°31' W 122°46'714.9
2018-Feb-09 11:30N 36°38' W 122°50'2214.9
2018-Feb-09 10:00N 36°57' W 123°04'714.5
2018-Feb-09 09:30N 37°03' W 123°09'714.7
2018-Feb-09 09:00N 37°10' W 123°13'1514.5
2018-Feb-09 08:00N 37°22' W 123°23'2214.6
2018-Feb-09 06:30N 37°41' W 123°37'714.6
2018-Feb-09 06:00N 37°48' W 123°41'714.9
2018-Feb-09 05:30N 37°54' W 123°45'714.6
2018-Feb-09 05:00N 38°01' W 123°49'714.7
2018-Feb-09 04:30N 38°08' W 123°53'714.7
2018-Feb-09 04:00N 38°14' W 123°57'714.5
2018-Feb-09 03:30N 38°21' W 124°00'714.6
2018-Feb-09 03:00N 38°28' W 124°04'714.3
2018-Feb-09 02:30N 38°34' W 124°07'714.2
2018-Feb-09 02:00N 38°41' W 124°11'714.5
2018-Feb-09 01:30N 38°47' W 124°14'714.5
2018-Feb-09 01:00N 38°54' W 124°18'714.8
2018-Feb-09 00:30N 39°01' W 124°21'  

Dump ship's entire track history